1485345600.75,11225,10.63,73476.3,-0.33,-36.97,-37.27,0,*6F
1485345602.01,11226,10.63,73472.5,-0.33,-37.21,-37.63,0,*60
1485345603.25,11227,10.63,73480.8,-0.35,-36.31,-36.67,0,*62
1485345604.5,11228,10.63,73482.0,-0.35,-36.61,-36.97,0,*67
1485345605.73,11229,10.63,73480.0,-0.35,-36.67,-36.97,0,*60
1485345606.98,11230,10.69,73486.3,-0.35,-36.61,-36.85,0,*6D
1485345608.2,11231,10.63,73484.8,-0.37,-37.15,-37.81,0,*69
1485345609.43,11232,10.63,73482.0,-0.37,-37.27,-37.69,0,*6D
1485345610.68,11233,10.69,73486.5,-0.35,-36.61,-37.03,0,*61
1485345611.96,11234,10.63,73490.3,-0.35,-36.25,-36.61,0,*63
1485345613.18,11235,10.63,73488.0,-0.37,-37.09,-37.45,0,*68
1485345614.39,11236,10.63,73486.8,-0.37,-36.85,-37.03,0,*6C
1485345615.62,11237,10.63,73490.8,-0.37,-36.67,-37.09,0,*6B
1485345616.82,11238,10.69,73492.3,-0.37,-36.73,-37.27,0,*6D
1485345618.04,11239,10.63,73492.0,-0.37,-36.13,-36.31,0,*6C
1485345619.27,11240,10.69,73494.5,-0.39,-36.01,-36.55,0,*6D
1485345620.51,11241,10.69,73492.8,-0.39,-36.01,-36.55,0,*6C
1485345621.76,11242,10.69,73496.5,-0.39,-36.55,-37.09,0,*66
1485345623.01,11243,10.69,73496.8,-0.39,-35.89,-36.37,0,*69
1485345624.26,11244,10.69,73498.0,-0.39,-35.71,-36.13,0,*6F
1485345625.46,11245,10.69,73498.5,-0.37,-36.55,-36.85,0,*6A
1485345626.68,11246,10.63,73490.8,-0.37,-37.63,-38.05,0,*6B
1485345627.94,11247,10.69,73496.0,-0.37,-36.91,-37.09,0,*65
1485345629.17,11248,10.63,73496.5,-0.39,-36.31,-36.67,0,*67
1485345630.4,11249,10.69,73500.3,-0.43,-36.07,-36.55,0,*6F
1485345631.66,11250,10.63,73498.3,-0.39,-35.41,-35.77,0,*68
1485345632.89,11251,10.63,73494.8,-0.39,-36.19,-36.67,0,*65
1485345634.14,11252,10.69,73496.3,-0.43,-35.95,-36.19,0,*65
1485345635.36,11253,10.63,73492.5,-0.39,-35.89,-36.19,0,*64
1485345636.59,11254,10.69,73496.0,-0.39,-35.89,-36.19,0,*63
1485345637.81,11255,10.63,73492.8,-0.37,-35.23,-35.59,0,*6B
1485345639.04,11256,10.69,73500.0,-0.37,-35.53,-35.89,0,*62
1485345640.3,11257,10.63,73498.8,-0.37,-35.07,-35.41,0,*66
1485345641.55,11258,10.63,73498.5,-0.35,-35.35,-35.71,0,*69
1485345642.8,11259,10.69,73500.5,-0.35,-35.71,-36.13,0,*6F
1485345644.07,11260,10.63,73496.0,-0.35,-36.25,-36.79,0,*6B
1485345645.3,11261,10.69,73492.3,-0.37,-36.67,-36.91,0,*68
1485345646.54,11262,10.69,73494.3,-0.35,-35.29,-35.77,0,*6B
1485345647.79,11263,10.69,73494.8,-0.37,-35.53,-35.95,0,*69
1485345649.02,11264,10.69,73492.5,-0.35,-35.47,-35.89,0,*64
1485345650.28,11265,10.63,73494.0,-0.35,-35.89,-36.25,0,*62
1485345651.53,11266,10.69,73494.3,-0.35,-35.65,-36.07,0,*63
1485345652.75,11267,10.69,73494.3,-0.37,-35.77,-36.13,0,*66
1485345653.98,11268,10.69,73492.8,-0.37,-37.09,-37.45,0,*60
1485345655.23,11269,10.69,73494.8,-0.35,-37.09,-37.45,0,*63
1485345656.5,11270,10.63,73486.8,-0.39,-38.67,-39.23,0,*6E
1485345657.74,11271,10.63,73486.3,-0.43,-38.85,-39.41,0,*6A
1485345658.95,11272,10.69,73490.8,-0.45,-38.61,-38.97,0,*6F
1485345660.19,11273,10.69,73490.0,-0.47,-38.35,-38.79,0,*6D
1485345661.43,11274,10.63,73486.0,-0.49,-37.33,-37.63,0,*69
1485345662.68,11275,10.69,73490.8,-0.51,-36.37,-36.85,0,*6D
1485345663.95,11276,10.69,73494.0,-0.51,-36.13,-36.37,0,*61
1485345665.15,11277,10.63,73490.5,-0.49,-36.31,-36.73,0,*69
1485345666.41,11278,10.63,73490.5,-0.51,-36.55,-36.91,0,*61
1485345667.66,11279,10.69,73490.5,-0.51,-36.49,-36.85,0,*68
1485345668.91,11280,10.69,73490.3,-0.51,-38.85,-39.53,0,*64
1485345670.17,11281,10.69,73490.5,-0.51,-38.49,-38.85,0,*6F
1485345671.41,11282,10.63,73482.5,-0.55,-38.43,-38.91,0,*67
1485345672.66,11283,10.69,73480.5,-0.55,-36.43,-36.91,0,*66
1485345673.89,11284,10.69,73482.5,-0.55,-36.73,-36.97,0,*64
1485345675.16,11285,10.69,73488.5,-0.55,-36.61,-36.91,0,*60
1485345676.38,11286,10.69,73490.3,-0.53,-36.19,-36.61,0,*65
1485345677.64,11287,10.63,73486.8,-0.55,-36.13,-36.55,0,*6F
1485345678.86,11288,10.69,73488.5,-0.53,-36.13,-36.43,0,*61
1485345680.07,11289,10.63,73492.5,-0.53,-35.77,-36.01,0,*67
1485345681.34,11290,10.63,73492.8,-0.55,-35.83,-36.13,0,*61
1485345682.57,11291,10.69,73494.5,-0.53,-36.13,-36.55,0,*6E
1485345683.82,11292,10.69,73492.3,-0.55,-37.33,-37.69,0,*66
1485345685.07,11293,10.63,73492.3,-0.55,-36.13,-36.55,0,*6A
1485345686.29,11294,10.69,73492.8,-0.53,-35.59,-35.83,0,*6E
1485345687.55,11295,10.69,73496.3,-0.53,-35.95,-36.25,0,*60
1485345688.8,11296,10.63,73494.5,-0.53,-36.79,-37.09,0,*6D
1485345690.04,11297,10.69,73496.5,-0.53,-36.13,-36.61,0,*6F
1485345691.3,11298,10.69,73496.3,-0.53,-35.95,-36.25,0,*6D
1485345692.51,11299,10.69,73492.5,-0.53,-35.47,-35.77,0,*67
1485345693.73,11300,10.63,73492.8,-0.55,-35.13,-35.59,0,*6D
1485345694.95,11301,10.69,73494.3,-0.53,-35.47,-35.83,0,*6C
1485345696.17,11302,10.63,73494.0,-0.53,-35.77,-36.01,0,*65
1485345697.37,11303,10.63,73492.8,-0.53,-35.47,-35.77,0,*65
1485345698.58,11304,10.63,73496.5,-0.53,-35.47,-35.77,0,*62
1485345699.78,11305,10.69,73498.3,-0.53,-35.29,-35.59,0,*67
1485345701.0,11306,10.63,73494.8,-0.53,-35.41,-35.77,0,*66
1485345702.29,11307,10.69,73496.8,-0.51,-35.07,-35.53,0,*61
1485345703.52,11308,10.63,73496.3,-0.51,-36.07,-36.55,0,*68
1485345704.75,11309,10.63,73494.0,-0.49,-36.07,-36.49,0,*6D
1485345706.01,11310,10.69,73494.0,-0.51,-36.67,-37.09,0,*6F
1485345707.26,11311,10.63,73494.5,-0.53,-36.79,-37.09,0,*63
1485345708.5,11312,10.69,73498.5,-0.53,-36.37,-36.79,0,*6C
1485345709.73,11313,10.63,73494.0,-0.53,-35.95,-36.19,0,*60
1485345710.95,11314,10.63,73498.8,-0.53,-36.01,-36.37,0,*65
1485345712.21,11315,10.69,73500.8,-0.51,-35.59,-35.95,0,*63
1485345713.43,11316,10.69,73502.3,-0.53,-36.01,-36.37,0,*67
1485345714.68,11317,10.69,73496.5,-0.51,-36.07,-36.37,0,*62
1485345715.93,11318,10.69,73492.0,-0.51,-35.53,-35.89,0,*69
1485345717.21,11319,10.69,73494.0,-0.51,-35.95,-36.37,0,*64
1485345718.46,11320,10.63,73490.3,-0.53,-35.83,-36.13,0,*6D
1485345719.72,11321,10.69,73488.3,-0.55,-36.97,-37.39,0,*65
1485345720.97,11322,10.63,73486.8,-0.55,-37.87,-38.23,0,*62
1485345722.22,11323,10.69,73488.8,-0.55,-38.85,-39.29,0,*65
1485345723.51,11324,10.63,73488.5,-0.59,-38.49,-38.79,0,*6A
1485345724.76,11325,10.63,73490.3,-0.59,-38.49,-38.73,0,*61
1485345725.98,11326,10.63,73490.0,-0.63,-38.97,-39.35,0,*6B
1485345727.21,11327,10.63,73484.3,-0.63,-38.43,-38.85,0,*69
1485345728.47,11328,10.69,73486.3,-0.63,-37.87,-38.23,0,*6D
1485345729.69,11329,10.69,73484.8,-0.69,-36.49,-36.85,0,*67
1485345730.89,11330,10.63,73480.8,-0.69,-35.71,-36.07,0,*6D
1485345732.11,11331,10.63,73486.5,-0.69,-36.07,-36.37,0,*6D
1485345733.36,11332,10.69,73490.3,-0.67,-36.01,-36.37,0,*66
1485345734.58,11333,10.63,73490.0,-0.67,-36.19,-36.43,0,*6D
1485345735.83,11334,10.63,73488.8,-0.67,-36.01,-36.37,0,*60
1485345737.03,11335,10.63,73492.8,-0.69,-36.19,-36.43,0,*65
1485345738.29,11336,10.69,73492.5,-0.67,-35.65,-36.01,0,*66
1485345739.54,11337,10.69,73492.0,-0.63,-35.59,-35.95,0,*62
1485345740.79,11338,10.69,73492.8,-0.63,-35.41,-36.07,0,*6C
1485345742.01,11339,10.63,73488.8,-0.61,-36.49,-36.85,0,*6E
1485345743.24,11340,10.69,73488.0,-0.63,-36.55,-37.03,0,*60
1485345744.47,11341,10.63,73486.5,-0.63,-36.07,-36.31,0,*66
1485345745.7,11342,10.63,73488.0,-0.63,-36.73,-37.03,0,*66
1485345746.96,11343,10.63,73492.3,-0.63,-35.95,-36.31,0,*6C
1485345748.18,11344,10.69,73492.8,-0.63,-36.31,-36.85,0,*69
1485345749.45,11345,10.63,73492.5,-0.67,-38.11,-38.67,0,*62
1485345750.66,11346,10.69,73488.0,-0.69,-39.35,-39.91,0,*60
1485345751.9,11347,10.69,73482.3,-0.73,-39.23,-39.71,0,*63
1485345753.1,11348,10.69,73484.8,-0.73,-38.05,-38.73,0,*6A
1485345754.31,11349,10.63,73480.8,-0.77,-40.21,-40.65,0,*6E
1485345755.52,11350,10.63,73480.8,-0.81,-40.47,-40.91,0,*64
1485345756.73,11351,10.69,73484.0,-0.81,-41.03,-41.49,0,*60
1485345757.97,11352,10.69,73484.0,-0.85,-41.29,-41.81,0,*6B
1485345759.19,11353,10.63,73490.8,-0.91,-40.85,-41.61,0,*66
1485345760.39,11354,10.69,73490.8,-0.95,-39.47,-39.85,0,*60
1485345761.62,11355,10.63,73488.5,-0.95,-38.49,-38.73,0,*66
1485345762.88,11356,10.63,73490.8,-0.97,-37.21,-37.57,0,*6F
1485345764.13,11357,10.63,73494.0,-0.97,-36.85,-37.09,0,*6A
1485345765.39,11358,10.63,73490.0,-0.97,-37.45,-37.81,0,*68
1485345766.62,11359,10.69,73492.5,-0.95,-37.03,-37.51,0,*64
1485345767.82,11360,10.69,73494.3,-0.95,-36.73,-36.97,0,*63
1485345769.05,11361,10.69,73496.0,-0.95,-36.37,-36.73,0,*68
1485345770.25,11362,10.69,73494.3,-0.95,-38.73,-39.09,0,*67
1485345771.5,11363,10.69,73494.8,-0.95,-37.39,-37.69,0,*6F
1485345772.75,11364,10.63,73490.0,-0.99,-36.49,-36.91,0,*64
1485345773.98,11365,10.69,73494.3,-0.99,-36.13,-36.55,0,*62
1485345775.23,11366,10.69,73494.5,-0.97,-35.89,-36.13,0,*6D
1485345776.49,11367,10.69,73498.0,-0.97,-35.77,-36.25,0,*68
1485345777.72,11368,10.69,73496.5,-0.95,-35.71,-36.25,0,*63
1485345778.95,11369,10.63,73492.5,-0.95,-36.61,-36.97,0,*69
1485345780.15,11370,10.69,73496.0,-0.95,-36.55,-36.85,0,*65
1485345781.4,11371,10.69,73494.0,-0.95,-36.79,-37.21,0,*65
1485345782.61,11372,10.63,73492.3,-0.95,-36.07,-36.55,0,*6D
1485345783.84,11373,10.69,73496.8,-0.93,-35.71,-36.19,0,*60
1485345785.04,11374,10.69,73492.3,-0.95,-35.13,-35.29,0,*65
1485345786.27,11375,10.63,73488.5,-0.93,-35.13,-35.47,0,*6A
1485345787.52,11376,10.63,73488.8,-0.93,-36.85,-37.21,0,*67
1485345788.78,11377,10.69,73494.8,-0.93,-36.01,-36.25,0,*6F
1485345790.03,11378,10.69,73494.5,-0.93,-35.47,-35.83,0,*6E
1485345791.31,11379,10.69,73492.3,-0.93,-35.41,-35.83,0,*69
1485345792.53,11380,10.69,73494.3,-0.91,-35.17,-35.41,0,*60
1485345793.76,11381,10.69,73490.8,-0.91,-35.23,-35.47,0,*60
1485345794.99,11382,10.69,73490.5,-0.89,-36.31,-36.55,0,*6A
1485345796.21,11383,10.69,73490.8,-0.91,-35.65,-36.19,0,*68
1485345797.46,11384,10.63,73490.3,-0.89,-35.59,-35.83,0,*69
1485345798.72,11385,10.69,73492.5,-0.89,-35.83,-36.55,0,*67
1485345799.97,11386,10.69,73492.8,-0.89,-36.37,-36.67,0,*69
1485345801.24,11387,10.63,73490.0,-0.89,-35.95,-36.13,0,*60
1485345802.51,11388,10.63,73488.8,-0.89,-35.65,-36.13,0,*60
1485345803.76,11389,10.69,73490.3,-0.85,-36.43,-36.91,0,*60
1485345805.0,11390,10.69,73490.5,-0.85,-35.71,-36.13,0,*60
1485345806.22,11391,10.69,73492.3,-0.85,-35.17,-35.59,0,*6C
1485345807.45,11392,10.69,73494.0,-0.85,-35.29,-35.71,0,*68
1485345808.72,11393,10.63,73492.5,-0.85,-36.91,-37.39,0,*67
1485345809.97,11394,10.69,73494.0,-0.85,-35.77,-36.13,0,*62
1485345811.19,11395,10.69,73494.0,-0.85,-36.43,-36.85,0,*68
1485345812.42,11396,10.69,73494.3,-0.85,-36.31,-36.73,0,*67
1485345813.64,11397,10.63,73488.5,-0.85,-35.89,-36.31,0,*60
1485345814.87,11398,10.69,73492.3,-0.85,-36.31,-36.73,0,*69
1485345816.09,11399,10.69,73494.0,-0.83,-35.71,-36.07,0,*6A
1485345817.34,11400,10.69,73490.8,-0.85,-37.27,-37.39,0,*66
1485345818.57,11401,10.69,73486.3,-0.85,-36.85,-37.27,0,*61
1485345819.79,11402,10.69,73486.0,-0.85,-35.89,-36.31,0,*6B
1485345821.06,11403,10.69,73488.8,-0.89,-36.13,-36.49,0,*69
1485345822.31,11404,10.63,73486.5,-0.89,-35.65,-36.01,0,*60
1485345823.56,11405,10.69,73490.5,-0.89,-35.47,-35.95,0,*6F
1485345824.84,11406,10.69,73488.0,-0.89,-35.07,-35.23,0,*65
1485345826.1,11407,10.69,73490.5,-0.83,-35.07,-35.29,0,*64
1485345827.34,11408,10.63,73490.8,-0.83,-35.13,-35.29,0,*6E
1485345828.57,11409,10.63,73488.3,-0.83,-35.71,-36.19,0,*6B
1485345829.82,11410,10.69,73494.0,-0.83,-35.47,-35.65,0,*6E
1485345831.1,11411,10.69,73492.0,-0.83,-35.65,-36.25,0,*68
1485345832.35,11412,10.69,73492.0,-0.83,-35.53,-35.89,0,*6B
1485345833.64,11413,10.69,73492.8,-0.83,-34.95,-35.23,0,*61
1485345834.84,11414,10.69,73494.0,-0.81,-35.47,-35.71,0,*6D
1485345836.09,11415,10.69,73492.3,-0.79,-35.29,-35.65,0,*66
1485345837.37,11416,10.69,73490.5,-0.79,-35.95,-36.49,0,*6F
1485345838.65,11417,10.69,73492.8,-0.79,-35.83,-36.13,0,*66
1485345839.88,11418,10.63,73490.0,-0.81,-35.47,-35.83,0,*6C
1485345841.14,11419,10.69,73490.8,-0.79,-35.07,-35.29,0,*6E
1485345842.37,11420,10.69,73490.8,-0.79,-35.17,-35.47,0,*6D
1485345843.65,11421,10.69,73490.5,-0.79,-35.07,-35.35,0,*68
1485345844.88,11422,10.69,73492.8,-0.79,-34.89,-35.17,0,*6C
1485345846.09,11423,10.69,73492.5,-0.77,-36.01,-36.55,0,*64
1485345847.34,11424,10.69,73490.3,-0.75,-36.13,-36.43,0,*65
1485345848.57,11425,10.69,73490.3,-0.77,-35.47,-35.95,0,*6C
1485345849.82,11426,10.69,73490.3,-0.77,-34.83,-35.07,0,*6D
1485345851.05,11427,10.69,73488.0,-0.77,-35.41,-35.77,0,*64
1485345852.3,11428,10.69,73488.8,-0.77,-35.23,-35.65,0,*6C
1485345853.5,11429,10.63,73490.5,-0.77,-35.29,-35.59,0,*68
1485345854.75,11430,10.69,73494.3,-0.77,-35.95,-36.37,0,*6C
1485345855.98,11431,10.69,73494.8,-0.77,-35.83,-36.19,0,*66
1485345857.2,11432,10.69,73492.3,-0.75,-35.59,-36.07,0,*6F
1485345858.45,11433,10.63,73490.3,-0.75,-36.91,-37.27,0,*6A
1485345859.68,11434,10.69,73492.5,-0.75,-36.31,-36.67,0,*62
1485345860.94,11435,10.63,73488.3,-0.75,-35.89,-36.13,0,*60
1485345862.14,11436,10.69,73490.5,-0.77,-35.77,-36.19,0,*6A
1485345863.37,11437,10.69,73490.8,-0.77,-36.55,-37.09,0,*68
1485345864.57,11438,10.69,73488.8,-0.77,-36.01,-36.55,0,*6E
1485345865.83,11439,10.69,73486.8,-0.77,-37.09,-37.51,0,*63
1485345867.06,11440,10.69,73484.8,-0.81,-35.89,-36.25,0,*6C
1485345868.31,11441,10.69,73490.0,-0.79,-35.17,-35.23,0,*68
1485345869.53,11442,10.69,73488.0,-0.77,-34.89,-35.07,0,*65
1485345870.79,11443,10.69,73488.3,-0.75,-35.01,-35.23,0,*61
1485345872.04,11444,10.69,73490.8,-0.75,-35.17,-35.41,0,*65
1485345873.27,11445,10.69,73488.0,-0.77,-35.47,-35.83,0,*6D
1485345874.52,11446,10.69,73486.5,-0.75,-35.17,-35.53,0,*64
1485345875.77,11447,10.69,73490.8,-0.75,-35.17,-35.53,0,*65
1485345877.05,11448,10.69,73488.3,-0.75,-35.23,-35.53,0,*6D
1485345878.3,11449,10.69,73490.0,-0.73,-35.41,-35.95,0,*64
1485345879.52,11450,10.63,73490.0,-0.73,-35.41,-35.89,0,*61
1485345880.72,11451,10.69,73492.0,-0.73,-36.73,-37.27,0,*64
1485345881.91,11452,10.63,73490.5,-0.73,-35.59,-36.07,0,*6F
1485345883.14,11453,10.69,73488.5,-0.73,-35.01,-35.23,0,*66
1485345884.36,11454,10.63,73486.0,-0.73,-35.23,-35.71,0,*66
1485345885.55,11455,10.69,73488.3,-0.73,-35.59,-36.07,0,*68
1485345886.78,11456,10.69,73492.0,-0.73,-35.41,-35.77,0,*66
1485345888.0,11457,10.69,73492.8,-0.73,-35.53,-35.77,0,*64
1485345889.23,11458,10.69,73492.3,-0.73,-35.41,-35.89,0,*69
1485345890.43,11459,10.69,73492.0,-0.73,-35.01,-35.13,0,*6F
1485345891.64,11460,10.69,73492.8,-0.73,-35.59,-35.89,0,*6B
1485345892.87,11461,10.69,73492.0,-0.71,-35.29,-35.47,0,*6D
1485345894.12,11462,10.69,73492.0,-0.71,-34.95,-35.17,0,*6D
1485345895.37,11463,10.69,73492.8,-0.71,-34.53,-34.77,0,*61
1485345896.63,11464,10.69,73490.5,-0.71,-34.53,-34.89,0,*67
1485345897.89,11465,10.69,73490.5,-0.67,-34.65,-35.01,0,*65
1485345899.15,11466,10.69,73492.5,-0.67,-34.53,-35.17,0,*64
1485345900.4,11467,10.69,73490.5,-0.67,-35.13,-35.41,0,*63
1485345901.65,11468,10.69,73486.8,-0.67,-35.23,-35.47,0,*69
1485345902.9,11469,10.69,73490.5,-0.67,-35.13,-35.41,0,*6D
1485345904.14,11470,10.69,73490.0,-0.67,-35.01,-35.13,0,*61
1485345905.37,11471,10.69,73492.3,-0.67,-35.47,-35.77,0,*60
1485345906.63,11472,10.63,73490.8,-0.63,-34.83,-35.01,0,*6F
1485345907.91,11473,10.63,73488.5,-0.63,-35.07,-35.41,0,*67
1485345909.2,11474,10.69,73490.8,-0.63,-34.95,-35.35,0,*69
1485345910.45,11475,10.69,73494.0,-0.63,-35.41,-35.77,0,*66
1485345911.7,11476,10.69,73492.0,-0.63,-35.17,-35.35,0,*60
1485345912.96,11477,10.69,73494.8,-0.61,-34.65,-34.95,0,*6C
1485345914.19,11478,10.69,73494.5,-0.63,-34.59,-34.77,0,*62
1485345915.43,11479,10.69,73492.0,-0.61,-36.25,-36.67,0,*6B
1485345916.68,11480,10.69,73494.8,-0.63,-34.59,-34.83,0,*6E
1485345917.91,11481,10.69,73494.8,-0.61,-34.77,-34.95,0,*66
1485345919.17,11482,10.69,73494.0,-0.61,-35.07,-35.35,0,*68
1485345920.4,11483,10.69,73490.5,-0.61,-36.37,-36.67,0,*6D
1485345921.63,11484,10.69,73486.3,-0.61,-36.37,-36.73,0,*6F
1485345922.85,11485,10.69,73488.5,-0.61,-35.17,-35.35,0,*6E
1485345924.05,11486,10.69,73486.5,-0.61,-35.17,-35.59,0,*67
1485345925.27,11487,10.69,73490.5,-0.61,-35.53,-35.89,0,*6B
1485345926.47,11488,10.69,73492.8,-0.61,-35.89,-36.31,0,*63
1485345927.7,11489,10.69,73490.3,-0.61,-36.49,-37.03,0,*6D
1485345928.92,11490,10.69,73490.3,-0.61,-37.63,-38.17,0,*66
1485345930.15,11491,10.69,73488.3,-0.61,-38.85,-39.23,0,*66
1485345931.4,11492,10.69,73486.8,-0.69,-38.67,-38.67,0,*60
1485345932.65,11493,10.69,73486.8,-0.69,-36.79,-37.21,0,*6D
1485345933.87,11494,10.69,73484.0,-0.69,-36.61,-37.03,0,*63
1485345935.08,11495,10.69,73488.0,-0.69,-35.71,-36.01,0,*63
1485345936.28,11496,10.63,73484.5,-0.69,-35.47,-36.01,0,*65
1485345937.51,11497,10.69,73488.5,-0.69,-35.53,-36.01,0,*61
1485345938.71,11498,10.63,73480.8,-0.69,-35.29,-35.71,0,*67
1485345939.93,11499,10.69,73484.3,-0.69,-35.65,-36.07,0,*6C
1485345941.15,11500,10.69,73486.3,-0.69,-35.53,-35.89,0,*6D
1485345942.38,11501,10.69,73488.8,-0.69,-35.29,-35.65,0,*63
1485345943.58,11502,10.69,73488.0,-0.69,-36.01,-36.19,0,*61
1485345944.85,11503,10.69,73488.0,-0.67,-35.23,-35.65,0,*65
1485345946.06,11504,10.69,73490.5,-0.69,-35.47,-35.89,0,*6C
1485345947.31,11505,10.69,73490.8,-0.67,-34.89,-35.07,0,*66
1485345948.54,11506,10.69,73490.0,-0.67,-34.71,-34.89,0,*65
1485345949.82,11507,10.69,73490.8,-0.67,-34.53,-34.83,0,*6E
1485345951.05,11508,10.69,73492.8,-0.67,-35.29,-35.59,0,*6B
1485345952.3,11509,10.69,73494.3,-0.63,-35.35,-35.71,0,*69
1485345953.53,11510,10.69,73492.5,-0.61,-35.01,-35.23,0,*63
1485345954.75,11511,10.69,73492.0,-0.61,-35.41,-35.77,0,*67
1485345956.01,11512,10.69,73494.0,-0.61,-35.07,-35.41,0,*63
1485345957.27,11513,10.69,73492.3,-0.61,-34.65,-34.95,0,*6F
1485345958.49,11514,10.69,73492.3,-0.61,-35.17,-35.53,0,*67
1485345959.71,11515,10.69,73490.3,-0.61,-35.17,-35.35,0,*66
1485345960.95,11516,10.69,73488.0,-0.61,-34.77,-34.95,0,*69
1485345962.18,11517,10.69,73488.0,-0.59,-35.29,-35.71,0,*62
1485345963.43,11518,10.69,73488.8,-0.59,-35.17,-35.53,0,*60
1485345964.66,11519,10.69,73488.3,-0.59,-35.89,-36.19,0,*6B
1485345965.91,11520,10.69,73488.3,-0.59,-35.29,-35.65,0,*63
1485345967.12,11521,10.69,73490.3,-0.57,-35.89,-36.31,0,*64
1485345968.35,11522,10.69,73490.3,-0.59,-36.67,-37.03,0,*6A
1485345969.6,11523,10.69,73488.0,-0.59,-35.83,-36.19,0,*68
1485345970.83,11524,10.69,73486.5,-0.61,-36.37,-36.73,0,*64
1485345972.06,11525,10.69,73488.5,-0.63,-36.31,-36.67,0,*64
1485345973.29,11526,10.69,73488.8,-0.61,-35.23,-35.59,0,*6B
1485345974.51,11527,10.69,73490.5,-0.61,-35.53,-35.89,0,*60
1485345975.71,11528,10.69,73490.5,-0.61,-35.71,-36.07,0,*6A
1485345976.96,11529,10.69,73490.3,-0.59,-35.17,-35.53,0,*62
1485345978.22,11530,10.69,73492.0,-0.59,-35.29,-35.65,0,*62
1485345979.46,11531,10.69,73492.3,-0.59,-35.71,-36.01,0,*6F
1485345980.71,11532,10.69,73488.5,-0.59,-35.13,-35.53,0,*6C
1485345981.98,11533,10.69,73484.5,-0.59,-35.35,-35.65,0,*6C
1485345983.21,11534,10.69,73490.8,-0.59,-35.71,-36.07,0,*6C
1485345984.44,11535,10.69,73488.0,-0.59,-35.89,-36.19,0,*65
1485345985.69,11536,10.69,73488.0,-0.59,-35.83,-36.19,0,*6C
1485345986.89,11537,10.69,73486.5,-0.61,-35.71,-36.07,0,*64
1485345988.1,11538,10.69,73488.3,-0.61,-36.31,-36.67,0,*6A
1485345989.35,11539,10.69,73490.8,-0.61,-35.95,-36.37,0,*63
1485345990.56,11540,10.69,73490.5,-0.61,-36.07,-36.55,0,*61
1485345991.8,11541,10.69,73488.8,-0.61,-38.23,-38.67,0,*67
1485345993.06,11542,10.69,73492.0,-0.63,-37.27,-37.51,0,*67
1485345994.31,11543,10.69,73490.8,-0.63,-36.91,-37.27,0,*6B
1485345995.5,11544,10.69,73492.3,-0.69,-38.97,-39.47,0,*66
1485345996.7,11545,10.69,73488.0,-0.69,-40.03,-40.65,0,*6B
1485345997.93,11546,10.69,73490.8,-0.73,-39.79,-40.15,0,*67
1485345999.18,11547,10.69,73484.0,-0.75,-38.73,-39.23,0,*60
1485346000.38,11548,10.69,73482.8,-0.77,-37.45,-37.75,0,*6A
1485346001.63,11549,10.69,73480.8,-0.79,-36.19,-36.49,0,*63
1485346002.86,11550,10.69,73486.3,-0.79,-35.77,-36.01,0,*6C
1485346004.12,11551,10.69,73486.0,-0.79,-35.65,-36.01,0,*6E
1485346005.35,11552,10.69,73484.8,-0.77,-35.47,-35.95,0,*6D
1485346006.6,11553,10.63,73484.3,-0.75,-35.23,-35.59,0,*6C
1485346007.85,11554,10.69,73494.0,-0.75,-36.13,-36.43,0,*63
1485346009.08,11555,10.69,73494.5,-0.77,-37.09,-37.33,0,*6C
1485346010.3,11556,10.69,73486.5,-0.77,-36.19,-36.49,0,*63
1485346011.55,11557,10.69,73486.8,-0.75,-35.35,-35.71,0,*65
1485346012.78,11558,10.69,73484.8,-0.77,-35.41,-35.77,0,*6D
1485346014.0,11559,10.69,73490.0,-0.75,-35.59,-36.07,0,*63
1485346015.25,11560,10.69,73496.5,-0.77,-36.37,-36.61,0,*60
1485346016.48,11561,10.69,73490.5,-0.77,-37.27,-37.63,0,*62
1485346017.76,11562,10.69,73486.5,-0.75,-37.39,-37.81,0,*60
1485346019.01,11563,10.69,73488.0,-0.77,-36.61,-37.09,0,*6F
1485346020.24,11564,10.69,73492.3,-0.77,-36.79,-37.15,0,*6C
1485346021.48,11565,10.69,73492.0,-0.79,-36.31,-36.55,0,*6A
1485346022.73,11566,10.69,73480.8,-0.79,-37.15,-37.51,0,*6B
1485346023.98,11567,10.69,73480.8,-0.81,-37.39,-37.69,0,*68
1485346025.19,11568,10.69,73484.8,-0.81,-36.67,-37.03,0,*61
1485346026.42,11569,10.69,73488.3,-0.79,-36.19,-36.55,0,*6C
1485346027.68,11570,10.63,73486.0,-0.79,-35.95,-36.31,0,*61
1485346028.93,11571,10.69,73488.0,-0.79,-37.69,-38.17,0,*6B
1485346030.19,11572,10.69,73486.5,-0.83,-37.39,-37.75,0,*63
1485346031.44,11573,10.69,73484.8,-0.85,-37.99,-38.35,0,*65
1485346032.66,11574,10.69,73488.0,-0.85,-37.57,-37.87,0,*66
1485346033.92,11575,10.69,73486.0,-0.85,-37.81,-38.35,0,*6A
1485346035.17,11576,10.69,73486.3,-0.85,-37.03,-37.39,0,*60
1485346036.42,11577,10.69,73484.3,-0.89,-37.09,-37.27,0,*68
1485346037.64,11578,10.69,73484.8,-0.89,-38.05,-38.61,0,*69
1485346038.89,11579,10.69,73488.8,-0.89,-38.43,-38.79,0,*63
1485346040.14,11580,10.63,73486.8,-0.93,-37.51,-37.75,0,*61
1485346041.42,11581,10.69,73488.5,-0.93,-38.49,-39.03,0,*69
1485346042.67,11582,10.69,73490.8,-0.95,-38.11,-38.49,0,*6E
1485346043.93,11583,10.69,73484.8,-0.93,-37.21,-37.57,0,*65
1485346045.18,11584,10.69,73484.8,-0.93,-37.57,-37.99,0,*61
1485346046.43,11585,10.69,73482.0,-0.95,-37.99,-38.49,0,*66
1485346047.69,11586,10.69,73482.0,-0.99,-37.63,-37.93,0,*64
1485346048.89,11587,10.69,73482.0,-0.99,-36.67,-36.85,0,*66
1485346050.1,11588,10.69,73480.3,-0.99,-35.77,-36.01,0,*67
1485346051.33,11589,10.69,73490.3,-0.97,-36.07,-36.43,0,*6A
1485346052.56,11590,10.69,73488.3,-0.97,-35.89,-36.31,0,*62
1485346053.84,11591,10.69,73486.5,-0.97,-36.91,-37.39,0,*60
1485346055.11,11592,10.69,73484.3,-0.97,-36.61,-36.91,0,*6F
1485346056.32,11593,10.69,73482.5,-0.95,-36.55,-36.97,0,*6D
1485346057.54,11594,10.69,73476.8,-0.95,-35.89,-36.37,0,*62
1485346058.82,11595,10.69,73478.3,-0.97,-36.61,-36.91,0,*68
1485346060.1,11596,10.69,73478.8,-0.97,-36.25,-36.61,0,*64
1485346061.37,11597,10.69,73484.8,-0.97,-36.25,-36.61,0,*65
1485346062.66,11598,10.69,73488.0,-0.97,-37.09,-37.39,0,*69
1485346063.93,11599,10.69,73488.3,-0.97,-36.25,-36.49,0,*61
1485346065.19,11600,10.69,73488.8,-0.97,-35.95,-36.31,0,*65
1485346066.47,11601,10.69,73486.8,-0.97,-37.09,-37.63,0,*65
1485346067.68,11602,10.69,73486.8,-0.99,-36.67,-36.97,0,*6B
1485346068.93,11603,10.69,73486.5,-0.99,-38.49,-39.03,0,*6A
1485346070.14,11604,10.69,73486.0,-0.99,-39.91,-40.35,0,*62
1485346071.35,11605,10.69,73486.8,-1.03,-39.65,-40.03,0,*5F
1485346072.57,11606,10.69,73480.0,-1.07,-38.91,-39.35,0,*59
1485346073.81,11607,10.69,73486.8,-1.07,-37.39,-37.57,0,*5F
1485346075.07,11608,10.69,73488.8,-1.05,-37.39,-37.75,0,*52
1485346076.28,11609,10.69,73486.0,-1.07,-36.85,-37.27,0,*50
1485346077.5,11610,10.69,73490.3,-1.07,-36.07,-36.43,0,*51
1485346078.75,11611,10.69,73490.3,-1.07,-36.49,-36.79,0,*53
1485346080.0,11612,10.69,73488.0,-1.07,-36.97,-37.39,0,*56
1485346081.2,11613,10.69,73486.3,-1.07,-37.03,-37.45,0,*50
1485346082.41,11614,10.69,73484.0,-1.07,-37.03,-37.27,0,*53
1485346083.67,11615,10.69,73486.0,-1.07,-36.49,-36.61,0,*5E
1485346084.94,11616,10.69,73488.0,-1.05,-36.91,-37.15,0,*58
1485346086.17,11617,10.69,73490.8,-1.05,-38.05,-38.55,0,*51
1485346087.41,11618,10.69,73484.8,-1.07,-37.81,-38.17,0,*59
1485346088.68,11619,10.69,73484.3,-1.11,-37.21,-37.63,0,*59
1485346089.92,11620,10.69,73484.5,-1.13,-38.05,-38.43,0,*55
1485346091.15,11621,10.69,73484.8,-1.13,-37.03,-37.33,0,*55
1485346092.43,11622,10.69,73486.3,-1.13,-36.13,-36.49,0,*5A
1485346093.68,11623,10.69,73482.5,-1.13,-36.01,-36.55,0,*55
1485346094.97,11624,10.69,73484.0,-1.13,-37.69,-37.99,0,*5C